Weather Service Report


918 
ASUS44 KLUB 241910
RWRTX 
WEST TEXAS WEATHER ROUNDUP
NATIONAL WEATHER SERVICE LUBBOCK TX
200 PM CDT FRI MAR 24 2017

NOTE: "FAIR" INDICATES FEW OR NO CLOUDS BELOW 12,000 FEET WITH NO
SIGNIFICANT WEATHER AND/OR OBSTRUCTIONS TO VISIBILITY.

TXZ004-006>008-010-012-014-016-OKZ002-242000-
TEXAS PANHANDLE/OKLAHOMA PANHANDLE
  
CITY           SKY/WX    TMP DP  RH WIND       PRES   REMARKS
AMARILLO       LGT RAIN  47  41  80 NW35G45   29.74R                  
BORGER         CLOUDY    52  39  61 N28G45    29.66R                  
CANADIAN       CLOUDY    59  40  50 SW15      29.62R                  
DALHART        CLOUDY    52  39  61 N38G56    29.81R                  
GUYMON         CLOUDY    52  42  69 N14       29.73R                  
HEREFORD       CLOUDY    56  39  53 N37G45    29.82R                  
PAMPA          CLOUDY    56  40  55 NW23G30   29.58R                  
PERRYTON       CLOUDY    58  41  53 E12       29.65R                  
$$

TXZ026-029-035-045-048-242000-
SOUTHERN PANHANDLE/SOUTH PLAINS/ROLLING PLAINS
  
CITY           SKY/WX    TMP DP  RH WIND       PRES   REMARKS
CHILDRESS      CLOUDY    66  39  37 W23G29    29.70F                  
SEMINOLE       SUNNY     70  31  23 W21G32    29.90F                  
LUBBOCK        PTSUNNY   67  35  30 W29G44    29.80R                  
PLAINVIEW      PTSUNNY   60  35  40 NW30G41   29.79R                  
SNYDER         SUNNY     71  32  23 W29G40    29.86S                  
$$

TXZ052-054-060>062-072-078-127-140-154-169-242000-
PERMIAN BASIN/CONCHO VALLEY/BIG COUNTRY/EDWARDS PLATEAU  
  
CITY           SKY/WX    TMP DP  RH WIND       PRES   REMARKS
ABILENE        SUNNY     74  30  19 SW22G39   29.84F                  
BIG SPRING     SUNNY     72  30  21 W24G35    29.91F                  
BROWNWOOD      SUNNY     77  32  19 SW26G33   29.86F                  
JUNCTION       SUNNY     78  29  16 SW12G23   29.93F                  
MIDLAND        SUNNY     71  27  19 W24G40    29.92S                  
ODESSA         SUNNY     70  26  19 W22G39    29.93S                  
SAN ANGELO     SUNNY     76  25  15 SW26G36   29.91F                  
SONORA         SUNNY     75  23  14 SW14G22   29.99F                  
SWEETWATER     SUNNY     72  29  20 W23G39    29.88F                  
WINK           LGT RAIN  72  26  18 W16G32    29.93S                  
$$

TXZ055-058-074-075-080-082-242000-
FAR WEST/SOUTHWEST MOUNTAINS/TRANS PECOS
  
CITY           SKY/WX    TMP DP  RH WIND       PRES   REMARKS
ALPINE         SUNNY     66  21  17 W31G40    30.11F                  
DRYDEN           N/A     79  15   9 SW29G38   29.94F                  
EL PASO        MOSUNNY   66  23  19 W24G30    30.10F                  
FORT STOCKTON  SUNNY     72  24  16 W26G39    29.97F                  
GUADALUPE PASS   N/A    N/A N/A N/A MISG        N/A                   
MARFA          SUNNY     65  20  17 W33G46    30.06F                  
PECOS          SUNNY     73  27  17 W26G33    29.97F                  
PRESIDIO       FAIR      75  18  11 W21G32    30.10F                  
$$

TXZ014-016-019-021>030-083-242000
TEXAS TECH WEST TEXAS MESONET/TEXAS PANHANDLE/NORTHERN SOUTH PLAINS
  
CITY           SKY/WX    TMP DP  RH WIND       PRES   REMARKS
ABERNATHY 5ENE   N/A     64  33  30 W33G43    29.80R                  
AMARILLO 9NNE    N/A     50  42  73 NW31      29.74R                  
AMARILLO 7SSE    N/A     52  38  60 NW28G38   29.75R                  
AMHERST 1NE      N/A     62  30  30 NW35      29.83R                  
BOOTLEG 11WNW    N/A     56  33  42 NW32      29.88R                  
CANADIAN 6E      N/A     56  43  60 SE15      29.62S                  
CAPROCK CYN SP   N/A     61  39  43 W25       29.74R                  
CHILDRESS 2NNE   N/A     64  40  40 SW17      29.70S                  
CLARENDON 2WSW   N/A     54  38  54 W32       29.69R                  
CLAUDE 12SW      N/A     48  39  71 NW24G36   29.74R                  
DIMMITT 2NE      N/A     55  35  47 NW30      29.81R                  
FLOYDADA 2NNE    N/A     63  34  33 W29       29.77R                  
FRIONA 2NE       N/A     56  32  40 NW32      29.84R                  
GOODLETT 3W      N/A     61  42  48 SW21G32   29.70R                  
HART 3N          N/A     57  37  47 NW33      29.81R                  
HEREFORD 2NW     N/A     54  35  49 NW33      29.82R                  
MCLEAN 1E        N/A     54  38  54 SW22      29.63S                  
MEMPHIS 1NE      N/A     62  38  42 W17G28    29.69R                  
MULESHOE 2SSW    N/A     61  30  31 NW31      29.85R                  
OLTON 6S         N/A     61  34  35 NW28G40   29.81R                  
PALO DURO SP     N/A     51  37  59 NW25      29.76R                  
PAMPA 2E         N/A     56  41  55 W12       29.57F                  
PLAINVIEW 1S     N/A     59  37  43 W31G43    29.79R                  
SILVERTON 7ESE   N/A     57  37  47 W32G43    29.75R                  
TULIA 2ENE       N/A     55  41  60 W28       29.78R                  
TURKEY 2WSW      N/A     63  39  41 W31G45    29.72R                  
UMBARGER 3NNE    N/A     51  41  67 NW30      29.79R                  
$$

TXZ033>036-039>041-045>048-242000
TEXAS TECH WEST TEXAS MESONET/SOUTH PLAINS  
  
CITY           SKY/WX    TMP DP  RH WIND       PRES   REMARKS
AIKEN 3WSW       N/A     61  37  39 W37       29.80R                  
ANDREWS 2NE      N/A     69  26  20 W23       29.92R                  
ANTON 6SSW       N/A     66  32  28 W35       29.83R                  
BROWNFIELD 2S    N/A     68  31  24 NW26      29.85R                  
DENVR CTY 7WNW   N/A     66  27  22 NW24G33   29.88R                  
GAIL 2ESE        N/A     72  31  21 W24G35    29.84S                  
LAMESA 2SE       N/A     70  31  23 W25G36    29.86F                  
LEVELLAND 4S     N/A     65  31  28 NW30G40   29.85R                  
LUBBOCK 3WNW     N/A     65  32  29 W25G37    29.82S                  
MORTON 1ENE      N/A     65  29  26 NW32G48   29.86R                  
ODONNELL 1N      N/A     70  27  20 W29G41    29.84S                  
PLAINS 3N        N/A     67  29  24 W26G38    29.87R                  
RALLS 1SE        N/A     66  34  30 W32G43    29.79R                  
REESE CENTER     N/A     62  30  29 W31G41    29.82S                  
SEAGRAVES 1SW    N/A     69  29  21 W25G35    29.86F                  
SEMINOLE 2NNE    N/A     70  27  20 W18G32    29.88S                  
SLATON 2NE       N/A     66  33  28 W30       29.82R                  
SNYDER 3E        N/A     71  31  22 W22G35    29.83F                  
SUNDOWN 8SW      N/A     65  31  28 NW32      29.87R                  
TAHOKA 3NNE      N/A     66  31  26 W25       29.83R                  
WOLFFORTH 6SSW   N/A     67  31  26 W30       29.84R                  
$$

TXZ031-032-036>038-042>044-242000-
TEXAS TECH WEST TEXAS MESONET/ROLLING PLAINS 
  
CITY           SKY/WX    TMP DP  RH WIND       PRES   REMARKS
ASPERMONT 3NE    N/A     75  30  19 SW25G36   29.77F                  
FLUVANNA 3WNW    N/A     72  28  19 W28G37    29.82F                  
GRAHAM 5SSW      N/A     70  31  23 W31G44    29.82R                  
GUTHRIE 10WSW    N/A     70  31  23 SW26      29.74F                  
HASKELL 1NW      N/A     74  27  17 SW21G30   29.77F                  
JAYTON 1SSE      N/A     73  31  21 SW23G35   29.77F                  
KNOX CITY 3NW    N/A     75  29  18 SW23G33   29.75F                  
LK A HENRY 1NW   N/A     73  30  20 W23       29.79F                  
NORTHFIELD 1S    N/A     66  39  36 W32G45    29.71S                  
ODELL 4ENE       N/A     72  32  22 S31       29.70F                  
PADUCAH 10SW     N/A     69  33  26 SW26      29.71F                  
POST 1NE         N/A     71  31  23 W29G43    29.80R                  
SEYMOUR 3NW      N/A     76  31  19 S23G36    29.74F                  
SPUR 1W          N/A     73  31  21 W21G37    29.75F                  
WEINERT 2NNE     N/A     75  32  21 SW23      29.76F                  
WHITE RVR 6NE    N/A     69  32  25 W36G46    29.76S                  
$$

TXZ052-054-060>062-072-078-127-140-154-169-242000-
TEXAS TECH WEST TEXAS MESONET/PERMIAN BASIN/
CONCHO VALLEY/BIG COUNTRY/EDWARDS PLATEAU
  
CITY           SKY/WX    TMP DP  RH WIND       PRES   REMARKS
COYANOSA 2N      N/A     74  26  16 W23       29.96S                  
JUNCTION 1SSW    N/A     77  28  16 SW14      29.95F                  
MERTZON 3NNE     N/A     74  27  17 W24       29.94S                  
SAN ANGELO 7NW   N/A     74  24  15 SW18G31   29.91S                  
STRLNG CT 4WSW   N/A     73  28  19 W20       29.90F                  
ST LAWRNCE 5SW   N/A     73  25  17 W24       29.92F                  
SWEETWATR 11SW   N/A     70  32  24 W23       29.88S                  
WALL 1E          N/A     78  27  15 SW31      29.91F                  
$$

TXZ055-058-074-075-080-082-242000-
TEXAS TECH WEST TEXAS MESONET/FAR WEST/SOUTHWEST MOUNTAINS/TRANS PECOS
  
CITY           SKY/WX    TMP DP  RH WIND       PRES   REMARKS
GUADLPE MTN NP   N/A     56  22  27 W38G52    30.04F                  
$$
  

Return to Home page


Western Regional Climate Center, wrcc@dri.edu